Pittsfield, IL

1:33 PM CDT on August 26, 2016 (GMT -0500)
Pittsfield Penstone Municipal

Weather History for KPPQ - February, 2013

Change the Weather History Date:

Friday, February 8, 2013

  Actual Average (KUIN) Record (KUIN)
Temperature  
Mean Temperature 33 °F 29 °F  
Max Temperature 35 °F 37 °F 69 °F (1990)
Min Temperature 30 °F 21 °F -12 °F (1933)
Degree Days  
Heating Degree Days 32 36  
Month to date heating degree days 295  
Since 1 July heating degree days 3681  
Cooling Degree Days 0 0  
Month to date cooling degree days 0  
Year to date cooling degree days 0  
Moisture  
Dew Point 29 °F    
Average Humidity 85    
Maximum Humidity 94    
Minimum Humidity 77    
Precipitation  
Precipitation 0.00 in 0.07 in 1.09 in (1969)
Month to date precipitation 0.44  
Year to date precipitation 1.96  
Sea Level Pressure  
Sea Level Pressure 30.29 in    
Wind  
Wind Speed 11 mph (North)    
Max Wind Speed 17 mph    
Max Gust Speed 23 mph    
Visibility 8 miles    
Events      
T = Trace of Precipitation, MM = Missing Value Source: NWS Daily Summary

Daily Weather History Graph

Daily Weather History Graph

Search for Another Location

Airport or City:

Trip Planner

Search our weather history database for the weather conditions in past years. The results will help you decide how hot, cold, wet, or windy it might be!

Date:

Astronomy

Feb. 08, 2013 Rise Set
Actual Time 7:03 AM CST 5:31 PM CST
Civil Twilight 6:35 AM CST 5:59 PM CST
Nautical Twilight 6:03 AM CST 6:31 PM CST
Astronomical Twilight 5:32 AM CST 7:03 PM CST
Moon 5:32 AM CST (2/8) 4:05 PM CST (2/8)
Length of Visible Light 11h 24m
Length of Day
10h 28m
Waning Crescent, 3% of the Moon is Illuminated
Feb 8
Waning Crescent
Feb 10
New
Feb 17
First Quarter
Feb 25
Full
Mar 4
Last Quarter

Hourly Weather History & Observations

Time (CST) Temp. Windchill Dew Point Humidity Pressure Visibility Wind Dir Wind Speed Gust Speed Precip Events Conditions
12:15 AM 34.9 °F 25.7 °F 33.3 °F 94% 30.09 in 2.0 mi NW 13.8 mph 18.4 mph N/A   Overcast
12:35 AM 34.7 °F 25.9 °F 32.9 °F 93% 30.09 in 2.0 mi NW 12.7 mph - N/A   Overcast
12:55 AM 34.3 °F 24.2 °F 32.7 °F 94% 30.10 in 2.0 mi NW 16.1 mph - N/A   Overcast
1:15 AM 34.0 °F 23.4 °F 32.2 °F 93% 30.10 in 2.0 mi NW 17.3 mph 21.9 mph N/A   Overcast
1:35 AM 33.8 °F 24.3 °F 32.0 °F 93% 30.11 in 2.0 mi NW 13.8 mph 21.9 mph N/A   Overcast
1:55 AM 33.8 °F 23.9 °F 32.0 °F 93% 30.12 in 2.5 mi NW 15.0 mph 18.4 mph N/A   Overcast
2:15 AM 33.8 °F 23.5 °F 32.0 °F 93% 30.13 in 2.5 mi NNW 16.1 mph - N/A   Overcast
2:35 AM 33.4 °F 24.3 °F 31.8 °F 94% 30.14 in 2.5 mi NNW 12.7 mph - N/A   Overcast
2:55 AM 33.8 °F 25.8 °F 31.8 °F 92% 30.14 in 3.0 mi NW 10.4 mph - N/A   Overcast
3:15 AM 33.8 °F 25.3 °F 32.0 °F 93% 30.15 in 3.0 mi NNW 11.5 mph 17.3 mph N/A   Overcast
3:35 AM 33.4 °F 24.3 °F 31.8 °F 94% 30.16 in 3.0 mi NW 12.7 mph 16.1 mph N/A   Overcast
3:55 AM 33.4 °F 24.8 °F 31.6 °F 93% 30.17 in 4.0 mi NNW 11.5 mph - N/A   Overcast
4:15 AM 33.3 °F 23.7 °F 31.5 °F 93% 30.17 in 4.0 mi NNW 13.8 mph 19.6 mph N/A   Overcast
4:35 AM 33.1 °F 22.6 °F 30.9 °F 92% 30.18 in 5.0 mi NNW 16.1 mph 20.7 mph N/A   Overcast
4:55 AM 33.8 °F 23.5 °F 30.2 °F 87% 30.19 in 5.0 mi NNW 16.1 mph 23.0 mph N/A   Overcast
5:15 AM 33.1 °F 23.0 °F 30.2 °F 89% 30.20 in 7.0 mi NNW 15.0 mph - N/A   Overcast
5:35 AM 33.1 °F 24.4 °F 30.0 °F 89% 30.21 in 7.0 mi NNW 11.5 mph 20.7 mph N/A   Overcast
5:55 AM 33.1 °F 22.2 °F 29.7 °F 87% 30.22 in 7.0 mi North 17.3 mph - N/A   Overcast
6:15 AM 33.1 °F 23.9 °F 29.5 °F 87% 30.23 in 10.0 mi NNW 12.7 mph 18.4 mph N/A   Overcast
6:35 AM 33.3 °F 24.6 °F 29.5 °F 86% 30.24 in 10.0 mi NNW 11.5 mph 17.3 mph N/A   Overcast
6:55 AM 33.3 °F 22.8 °F 29.5 °F 86% 30.26 in 10.0 mi NNW 16.1 mph 20.7 mph N/A   Overcast
7:15 AM 33.1 °F 23.9 °F 29.8 °F 88% 30.27 in 7.0 mi NNW 12.7 mph - N/A   Overcast
7:35 AM 32.9 °F 24.1 °F 30.0 °F 89% 30.29 in 7.0 mi NNW 11.5 mph - N/A   Overcast
7:55 AM 32.9 °F 24.1 °F 29.8 °F 88% 30.30 in 5.0 mi NW 11.5 mph - N/A   Overcast
8:15 AM 32.5 °F 24.2 °F 30.0 °F 90% 30.30 in 5.0 mi NW 10.4 mph - N/A   Overcast
8:35 AM 32.5 °F 24.2 °F 30.0 °F 90% 30.31 in 5.0 mi NW 10.4 mph - N/A   Overcast
8:55 AM 32.5 °F 24.8 °F 29.8 °F 90% 30.32 in 5.0 mi NW 9.2 mph - N/A   Overcast
9:15 AM 32.7 °F 25.0 °F 29.7 °F 88% 30.32 in 7.0 mi NNW 9.2 mph - N/A   Overcast
9:35 AM 33.1 °F 24.9 °F 29.3 °F 86% 30.33 in 7.0 mi NW 10.4 mph - N/A   Overcast
9:55 AM 33.4 °F 24.8 °F 29.3 °F 85% 30.33 in 10.0 mi NNW 11.5 mph - N/A   Overcast
10:15 AM 33.8 °F 25.3 °F 29.5 °F 84% 30.33 in 10.0 mi NNW 11.5 mph - N/A   Overcast
10:35 AM 34.3 °F 25.9 °F 29.5 °F 82% 30.34 in 10.0 mi NNW 11.5 mph - N/A   Overcast
10:55 AM 34.2 °F 27.5 °F 28.9 °F 81% 30.35 in 10.0 mi NW 8.1 mph - N/A   Overcast
11:15 AM 34.7 °F 28.8 °F 29.3 °F 81% 30.35 in 10.0 mi NW 6.9 mph - N/A   Overcast
11:35 AM 34.3 °F 27.7 °F 28.4 °F 79% 30.35 in 10.0 mi NW 8.1 mph - N/A   Overcast
11:55 AM 34.7 °F 28.1 °F 29.1 °F 80% 30.35 in 10.0 mi NNW 8.1 mph - N/A   Overcast
12:15 PM 35.1 °F 28.6 °F 29.1 °F 79% 30.34 in 10.0 mi North 8.1 mph - N/A   Overcast
12:35 PM 35.1 °F 28.6 °F 29.3 °F 80% 30.33 in 10.0 mi North 8.1 mph - N/A   Overcast
12:55 PM 34.9 °F 29.9 °F 28.8 °F 78% 30.33 in 10.0 mi North 5.8 mph - N/A   Overcast
1:15 PM 35.1 °F 30.1 °F 29.1 °F 79% 30.33 in 10.0 mi North 5.8 mph - N/A   Overcast
1:35 PM 34.9 °F 29.9 °F 28.6 °F 78% 30.33 in 10.0 mi NE 5.8 mph - N/A   Overcast
1:55 PM 35.1 °F 29.3 °F 28.6 °F 77% 30.33 in 10.0 mi NNE 6.9 mph - N/A   Overcast
2:15 PM 34.9 °F 29.9 °F 28.9 °F 79% 30.33 in 10.0 mi NNE 5.8 mph - N/A   Overcast
2:35 PM 34.7 °F 30.6 °F 28.9 °F 79% 30.33 in 10.0 mi NNW 4.6 mph - N/A   Overcast
2:55 PM 34.3 °F 30.2 °F 28.6 °F 79% 30.34 in 10.0 mi NNW 4.6 mph - N/A   Overcast
3:15 PM 34.7 °F 29.6 °F 28.6 °F 78% 30.35 in 10.0 mi North 5.8 mph - N/A   Overcast
3:35 PM 34.3 °F 31.4 °F 28.0 °F 78% 30.35 in 10.0 mi North 3.5 mph - N/A   Overcast
3:55 PM 34.5 °F 30.4 °F 28.0 °F 77% 30.36 in 10.0 mi NNE 4.6 mph - N/A   Overcast
4:15 PM 34.0 °F 29.8 °F 28.4 °F 80% 30.37 in 10.0 mi NE 4.6 mph - N/A   Overcast
4:35 PM 33.8 °F 30.8 °F 28.4 °F 81% 30.38 in 10.0 mi NE 3.5 mph - N/A   Overcast
4:55 PM 33.6 °F 29.4 °F 27.9 °F 79% 30.38 in 10.0 mi ENE 4.6 mph - N/A   Overcast
5:15 PM 33.1 °F 27.7 °F 27.7 °F 81% 30.36 in 10.0 mi ENE 5.8 mph - N/A   Overcast
5:35 PM 32.7 °F 27.3 °F 27.5 °F 81% 30.34 in 10.0 mi East 5.8 mph - N/A   Overcast
5:55 PM 32.4 °F 27.9 °F 27.3 °F 82% 30.35 in 10.0 mi ENE 4.6 mph - N/A   Overcast
6:15 PM 32.2 °F 26.7 °F 27.3 °F 82% 30.35 in 10.0 mi ENE 5.8 mph - N/A   Overcast
6:35 PM 32.0 °F 25.6 °F 27.5 °F 83% 30.34 in 10.0 mi ENE 6.9 mph - N/A   Overcast
6:55 PM 32.0 °F 28.7 °F 27.3 °F 83% 30.35 in 10.0 mi East 3.5 mph - N/A   Overcast
7:15 PM 32.0 °F 27.5 °F 27.7 °F 84% 30.36 in 10.0 mi East 4.6 mph - N/A   Overcast
7:35 PM 32.0 °F 27.5 °F 27.5 °F 83% 30.36 in 10.0 mi East 4.6 mph - N/A   Overcast
7:55 PM 32.0 °F - 26.8 °F 81% 30.37 in 10.0 mi Calm Calm - N/A   Overcast
8:15 PM 32.0 °F 28.7 °F 27.0 °F 82% 30.36 in 10.0 mi East 3.5 mph - N/A   Overcast
8:35 PM 31.8 °F 26.2 °F 27.0 °F 82% 30.36 in 10.0 mi East 5.8 mph - N/A   Overcast
8:55 PM 31.6 °F 27.0 °F 27.3 °F 84% 30.36 in 10.0 mi East 4.6 mph - N/A   Overcast
9:15 PM 31.8 °F 26.2 °F 27.7 °F 85% 30.37 in 10.0 mi East 5.8 mph - N/A   Overcast
9:35 PM 31.8 °F 26.2 °F 27.5 °F 84% 30.36 in 10.0 mi ESE 5.8 mph - N/A   Overcast
9:55 PM 31.6 °F 26.0 °F 27.5 °F 85% 30.36 in 10.0 mi East 5.8 mph - N/A   Overcast
10:15 PM 31.6 °F 25.1 °F 27.5 °F 85% 30.36 in 10.0 mi ESE 6.9 mph - N/A   Overcast
10:35 PM 31.6 °F 25.1 °F 27.5 °F 85% 30.36 in 10.0 mi SE 6.9 mph - N/A   Overcast
10:55 PM 31.5 °F 25.8 °F 27.7 °F 86% 30.35 in 10.0 mi ESE 5.8 mph - N/A   Overcast
11:15 PM 31.1 °F 23.1 °F 27.5 °F 87% 30.35 in 10.0 mi ESE 9.2 mph - N/A   Overcast
11:35 PM 31.1 °F 24.5 °F 27.7 °F 87% 30.36 in 10.0 mi SE 6.9 mph - N/A   Overcast
11:55 PM 30.7 °F 24.1 °F 27.1 °F 86% 30.35 in 10.0 mi ESE 6.9 mph - N/A   Overcast